Volver al catálogo

COSMOS 1275 DEB

ActivoPO
NORAD 42150·DEBRIS·🇷🇺 Russia

Lanzado Jun 4, 1981 desde Plesetsk Cosmodrome

Loading…

Próximos Pases (próximas 24 horas)

TLE

EnvejeciendoSource: Space-Track

Época: Sep 6, 2026, 02:01 UTC

1 42150U 81053RN  26249.08434597  .00000468  00000-0  60192-3 0  9991
2 42150  83.0683  22.7809 0214626   1.4752 358.6977 13.51741754584336

Sigue COSMOS 1275 DEB en tiempo real con AllMySat

Download on the App Store